Vorticity
nan nan nan nan nan nan nan nan nan nan nan nan nan nan nan nan nan nan nan nan nan nan nan nan nan nan nan nan nan nan nan nan nan nan nan nan nan nan
nan 7 8 12 11 11 10 9 9 9 11 9 8 9 10 9 11 15 14 10 7 12 16 18 17 14 11 12 11 8 8 9 10 10 10 11 11 nan
nan 8 7 9 9 8 11 9 10 10 9 10 11 8 10 12 11 9 10 14 8 9 10 10 13 13 16 14 11 12 12 9 10 10 10 11 11 nan
nan 9 8 8 8 7 7 7 9 11 11 10 8 10 9 9 10 8 8 8 6 5 7 7 9 9 10 18 25 23 13 9 9 10 11 11 10 nan
nan 13 11 8 6 8 9 9 9 9 9 10 10 10 9 7 9 9 8 9 7 7 7 8 8 9 11 13 19 25 18 11 10 9 9 12 13 nan
nan 14 16 14 13 10 8 9 9 10 10 9 10 10 9 9 10 7 9 11 9 8 8 8 8 9 8 11 12 11 15 16 12 13 10 8 11 nan
nan 10 11 12 14 15 12 9 7 8 9 9 10 10 8 9 10 11 10 10 9 9 10 10 9 8 4 7 11 15 15 10 13 14 13 14 10 nan
nan 7 7 6 7 9 12 18 16 11 10 10 9 8 10 9 9 10 9 10 10 9 10 9 10 9 7 3 9 14 12 13 14 12 19 20 16 nan
nan 8 7 8 9 9 11 11 12 13 12 10 10 8 9 9 7 9 11 10 7 9 12 9 8 10 9 3 6 8 6 9 13 16 18 19 20 nan
nan 12 9 8 10 14 10 6 5 7 9 14 17 15 14 13 12 10 9 11 9 7 10 12 10 9 8 3 0 7 9 8 8 8 11 14 18 nan
nan 11 11 7 11 16 12 8 7 7 9 13 14 14 16 17 16 12 10 14 11 6 10 13 9 12 9 7 -2 2 8 8 5 3 7 10 13 nan
nan 8 9 9 9 13 14 10 7 7 11 10 5 6 8 7 13 17 14 11 10 9 8 11 10 12 12 8 3 5 4 4 6 5 5 7 17 nan
nan 7 7 11 11 11 12 14 12 10 10 11 10 8 7 7 6 9 16 17 14 9 10 11 10 12 11 9 7 6 8 7 8 7 4 6 11 nan
nan 9 11 12 12 10 10 12 13 14 10 10 9 9 8 8 9 10 13 12 11 10 11 12 14 10 11 12 9 7 10 6 7 9 8 9 9 nan
nan 12 13 10 7 6 10 9 8 10 10 10 9 9 9 9 12 10 9 7 6 6 12 15 11 11 13 12 10 8 10 7 6 9 9 10 9 nan
nan 14 8 5 7 8 7 8 11 12 11 8 8 10 11 12 11 11 10 10 9 5 7 10 12 13 12 12 11 10 10 8 7 8 10 10 11 nan
nan 9 7 8 9 9 10 10 10 12 11 11 11 10 11 10 10 12 10 12 11 9 9 7 10 13 14 10 10 8 10 10 7 8 10 12 10 nan
nan 11 10 11 10 9 9 9 10 11 11 11 10 11 11 11 9 10 10 11 9 10 9 9 13 14 11 8 7 15 11 9 8 10 11 10 8 nan
nan 12 12 12 11 11 9 9 10 10 11 10 10 11 11 10 10 11 12 10 9 10 9 9 9 11 11 13 4 5 11 10 10 10 9 9 10 nan
nan 14 11 10 11 11 10 10 10 10 10 10 10 11 11 11 10 10 11 12 12 10 11 10 9 10 9 10 13 4 7 9 9 10 11 13 10 nan
nan 12 11 10 11 11 11 11 11 10 10 9 9 10 11 11 10 11 10 10 11 11 9 9 3 11 18 11 10 9 6 9 13 10 10 9 11 nan
nan 11 10 11 10 10 12 11 10 10 10 10 10 10 11 11 11 10 10 9 9 11 10 9 10 11 10 9 9 11 12 11 10 11 12 10 8 nan
nan nan nan nan nan nan nan nan nan nan nan nan nan nan nan nan nan nan nan nan nan nan nan nan nan nan nan nan nan nan nan nan nan nan nan nan nan nan
CAPE
939 808 668 181 1 151 147 0 1 22 53 113 0 234 144 3 52 66 15 405 973 736 161 208 338 245 142 86 122 188 292 407 501 719 1009 936 1049 1188
852 429 583 474 519 649 873 508 212 53 249 14 144 9 237 198 207 704 539 1041 1303 501 480 5 66 146 276 123 36 35 55 51 46 62 129 299 297 300
675 702 579 732 777 1008 746 823 712 607 329 236 233 391 273 264 85 696 975 1262 720 999 552 843 434 179 45 2 12 5 4 19 11 0 0 4 43 32
407 505 564 785 538 558 626 769 531 554 416 331 231 572 322 183 9 545 864 1295 960 997 1280 977 989 670 690 22 0 0 0 0 0 0 0 0 0 0
689 527 498 364 455 251 506 527 389 410 442 517 558 294 367 340 466 623 848 824 883 944 1035 911 839 695 88 75 0 0 0 0 0 0 0 0 0 0
708 634 553 431 462 313 485 603 591 577 546 381 403 357 338 737 588 660 129 313 423 756 622 819 760 370 372 465 64 0 0 0 0 0 0 0 0 0
395 436 138 64 90 248 200 311 335 318 300 414 381 390 401 521 533 226 112 140 79 377 326 661 507 316 331 243 3 0 0 0 0 0 0 0 0 0
249 0 0 0 0 0 0 48 164 272 211 334 392 372 352 248 22 0 0 20 110 40 35 201 212 124 197 86 0 0 0 0 0 0 0 0 0 0
174 0 0 0 0 0 0 0 0 0 5 72 61 0 3 0 0 0 0 0 28 0 0 91 0 0 71 0 0 0 0 0 0 0 0 0 0 1
0 0 0 0 0 0 0 0 0 0 0 0 0 0 0 0 0 0 0 0 0 0 0 0 7 0 0 0 0 0 0 0 0 0 0 0 0 0
0 0 0 0 0 0 0 0 0 0 0 0 0 0 0 0 0 0 0 0 0 0 0 0 0 0 0 0 0 0 0 0 0 0 0 0 0 0
0 0 0 0 0 0 0 0 0 0 0 0 0 0 0 0 0 0 0 0 0 0 0 0 0 0 0 0 0 0 0 0 0 0 0 0 0 0
0 0 0 0 0 0 0 0 0 0 0 0 0 0 0 0 0 0 0 0 0 0 0 0 0 0 0 0 0 0 0 0 0 0 0 0 0 0
0 0 0 0 0 0 0 0 0 0 0 0 0 0 0 0 0 0 0 0 0 0 0 0 0 0 0 0 0 0 0 0 0 0 0 0 0 0
0 0 0 0 0 0 0 0 0 0 0 0 0 0 0 0 0 0 0 0 0 0 0 0 0 0 0 0 0 0 0 0 0 0 0 0 0 0
0 0 0 0 0 0 0 0 0 0 0 0 0 0 0 0 0 0 0 0 0 0 0 0 0 0 0 0 0 0 0 0 0 0 0 0 0 0
0 0 0 0 0 0 0 0 0 0 0 0 0 0 0 0 0 0 0 0 0 0 0 0 0 0 0 0 0 0 0 0 0 0 0 0 0 0
0 0 0 0 0 0 0 0 0 0 0 0 0 0 0 0 0 0 0 0 0 0 0 0 0 0 0 0 0 0 0 0 0 0 0 0 0 0
0 0 0 0 0 0 0 0 0 0 0 0 0 0 0 0 0 0 0 0 0 0 0 0 0 0 0 0 0 0 0 0 0 0 0 0 0 0
0 0 0 0 0 0 0 0 0 0 0 0 0 0 0 0 0 0 0 0 0 0 0 0 0 0 0 0 0 0 0 0 0 0 0 0 0 0
0 0 0 0 0 0 0 0 0 0 0 0 0 0 0 0 0 0 0 0 0 0 0 0 0 0 0 0 0 0 0 0 0 0 0 1 1 0
0 0 0 0 0 0 0 0 0 0 0 0 0 0 0 0 0 0 0 0 0 0 0 0 0 0 0 1 1 1 0 0 0 0 0 1 3 7
0 0 0 0 0 0 0 0 0 0 0 0 0 0 0 0 0 0 0 0 0 0 0 0 0 0 0 0 0 0 0 1 1 0 0 0 0 0